Houston Clover, TX

5:23 PM CDT on March 29, 2017 (GMT -0500)
Clover

Weather History for KLVJ - November, 2013

Change the Weather History Date:

Sunday, November 3, 2013

  Actual Average (KEFD) Record (KEFD)
Temperature  
Mean Temperature 58 °F -  
Max Temperature 70 °F 74 °F 84 °F (2001)
Min Temperature 48 °F 55 °F 37 °F (1999)
Degree Days  
Heating Degree Days 6    
Growing Degree Days 8 (Base 50)    
Moisture  
Dew Point 47 °F    
Average Humidity 65    
Maximum Humidity 83    
Minimum Humidity 49    
Precipitation  
Precipitation 0.00 in - - ()
Sea Level Pressure  
Sea Level Pressure 30.17 in    
Wind  
Wind Speed 6 mph (ENE)    
Max Wind Speed 16 mph    
Max Gust Speed 20 mph    
Visibility 10 miles    
Events      
Averages and records for this station are not official NWS values.
T = Trace of Precipitation, MM = Missing Value Source: NWS Daily Summary

Daily Weather History Graph

Daily Weather History Graph

Search for Another Location

Airport or City:

Trip Planner

Search our weather history database for the weather conditions in past years. The results will help you decide how hot, cold, wet, or windy it might be!

Date:

Astronomy

Nov. 03, 2013 Rise Set
Actual Time 6:35 AM CST 5:32 PM CST
Civil Twilight 6:11 AM CST 5:57 PM CST
Nautical Twilight 5:42 AM CST 6:25 PM CST
Astronomical Twilight 5:14 AM CST 6:53 PM CST
Moon 6:39 AM CST (11/3) 5:50 PM CST (11/3)
Length of Visible Light 11h 46m
Length of Day
10h 56m
New Moon, 0% of the Moon is Illuminated
Nov 3
New Moon
Nov 9
First Quarter
Nov 17
Full
Nov 25
Last Quarter
Dec 2
New

Hourly Weather History & Observations

Time (CST) Temp. Dew Point Humidity Pressure Visibility Wind Dir Wind Speed Gust Speed Precip Events Conditions
12:53 AM 53.1 °F 42.1 °F 66% 30.22 in 10.0 mi NNW 3.5 mph - N/A   Clear
1:53 AM 51.1 °F 43.0 °F 74% 30.21 in 10.0 mi Calm Calm - N/A   Clear
1:53 AM 48.0 °F 43.0 °F 83% 30.22 in 10.0 mi Calm Calm - N/A   Clear
2:53 AM 48.9 °F 42.1 °F 77% 30.21 in 10.0 mi NW 4.6 mph - N/A   Clear
3:53 AM 48.9 °F 42.1 °F 77% 30.19 in 10.0 mi NE 4.6 mph - N/A   Clear
4:53 AM 48.9 °F 42.1 °F 77% 30.19 in 10.0 mi NE 3.5 mph - N/A   Clear
5:53 AM 50.0 °F 42.1 °F 74% 30.20 in 10.0 mi North 3.5 mph - N/A   Clear
6:53 AM 50.0 °F 43.0 °F 77% 30.22 in 10.0 mi NNE 4.6 mph - N/A   Clear
7:53 AM 55.9 °F 48.0 °F 75% 30.22 in 10.0 mi NE 5.8 mph - N/A   Clear
8:53 AM 62.1 °F 51.1 °F 67% 30.22 in 10.0 mi ENE 8.1 mph - N/A   Clear
9:53 AM 66.0 °F 50.0 °F 56% 30.22 in 10.0 mi East 9.2 mph - N/A   Clear
10:53 AM 66.9 °F 50.0 °F 54% 30.20 in 10.0 mi East 11.5 mph - N/A   Clear
11:04 AM 66.2 °F 50.0 °F 56% 30.20 in 2.5 mi East 11.5 mph 17.3 mph N/A   Haze
11:13 AM 69.8 °F 50.0 °F 49% 30.19 in 10.0 mi East 11.5 mph - N/A   Partly Cloudy
11:53 AM 68.0 °F 50.0 °F 52% 30.17 in 10.0 mi East 10.4 mph 18.4 mph N/A   Partly Cloudy
12:53 PM 69.1 °F 48.9 °F 49% 30.13 in 10.0 mi SE 16.1 mph 19.6 mph N/A   Partly Cloudy
1:53 PM 69.1 °F 48.9 °F 49% 30.12 in 10.0 mi East 8.1 mph - N/A   Mostly Cloudy
2:53 PM 68.0 °F 51.1 °F 55% 30.12 in 10.0 mi East 11.5 mph - N/A   Mostly Cloudy
3:53 PM 66.9 °F 51.1 °F 57% 30.11 in 10.0 mi East 11.5 mph - N/A   Partly Cloudy
4:53 PM 64.9 °F 50.0 °F 58% 30.11 in 10.0 mi East 9.2 mph - N/A   Partly Cloudy
5:53 PM 63.0 °F 51.1 °F 65% 30.12 in 10.0 mi East 6.9 mph - N/A   Clear
6:53 PM 61.0 °F 50.0 °F 67% 30.14 in 10.0 mi East 9.2 mph - N/A   Clear
7:53 PM 61.0 °F 48.9 °F 64% 30.15 in 10.0 mi East 8.1 mph - N/A   Clear
8:53 PM 60.1 °F 48.0 °F 64% 30.14 in 10.0 mi East 6.9 mph - N/A   Clear
9:53 PM 57.9 °F 48.9 °F 72% 30.13 in 10.0 mi East 5.8 mph - N/A   Clear
10:53 PM 59.0 °F 48.9 °F 69% 30.12 in 10.0 mi ESE 4.6 mph - N/A   Clear